This is the latest recevied weather packets stored in our database for station/object EB2EMZ-14. If no packets are shown the sender has not sent any weather packets the latest 10 day(s).
| Time | Temp. | Humidity | Pressure | Rain* | Wind** | Luminosity | Snow |
|---|---|---|---|---|---|---|---|
| 1777502411 | 11.11° C | 90% | 1012.2 hPa | 1.02 mm | - | 0 W/m² | - |
| 1777502111 | 11.11° C | 90% | 1012.2 hPa | 0.51 mm | - | 0 W/m² | - |
| 1777501811 | 11.11° C | 90% | 1012.4 hPa | 0 mm | - | 0 W/m² | - |
| 1777501511 | 11.11° C | 90% | 1012.3 hPa | 0.51 mm | - | 0 W/m² | - |
| 1777501211 | 11.11° C | 90% | 1012.2 hPa | 4.06 mm | - | 0 W/m² | - |
| 1777500911 | 11.11° C | 90% | 1012.1 hPa | 7.62 mm | - | 0 W/m² | - |
| 1777500611 | 11.11° C | 90% | 1011.8 hPa | 7.62 mm | - | 0 W/m² | - |
| 1777500311 | 11.11° C | 90% | 1011.4 hPa | 7.62 mm | - | 0 W/m² | - |
| 1777500011 | 11.11° C | 89% | 1011.2 hPa | 7.62 mm | - | 0 W/m² | - |
| 1777499710 | 11.11° C | 89% | 1011.1 hPa | 7.62 mm | - | 0 W/m² | - |
| 1777499411 | 11.11° C | 89% | 1011.2 hPa | 7.62 mm | - | 0 W/m² | - |
| 1777499112 | 11.11° C | 89% | 1011.2 hPa | 7.62 mm | - | 0 W/m² | - |
| 1777498810 | 11.67° C | 89% | 1011.3 hPa | 7.62 mm | - | 0 W/m² | - |
| 1777498511 | 11.67° C | 89% | 1011.1 hPa | 7.62 mm | - | 0 W/m² | - |
| 1777498211 | 11.67° C | 89% | 1011.1 hPa | 7.62 mm | - | 0 W/m² | - |
| 1777497910 | 12.22° C | 90% | 1011.4 hPa | 7.11 mm | - | 0 W/m² | - |
| 1777497611 | 12.22° C | 90% | 1011.6 hPa | 4.57 mm | - | 0 W/m² | - |
| 1777497311 | 12.22° C | 90% | 1011.5 hPa | 0.51 mm | - | 0 W/m² | - |
| 1777497011 | 12.22° C | 90% | 1010.7 hPa | 0 mm | - | 0 W/m² | - |
| 1777496712 | 12.22° C | 89% | 1010.6 hPa | 0 mm | - | 0 W/m² | - |
| 1777496412 | 11.67° C | 89% | 1010.1 hPa | 0 mm | - | 0 W/m² | - |
| 1777496111 | 11.67° C | 88% | 1010 hPa | 0 mm | - | 0 W/m² | - |
| 1777495814 | 11.67° C | 88% | 1009.7 hPa | 0 mm | - | 0 W/m² | - |
| 1777495511 | 11.67° C | 88% | 1009.8 hPa | 0 mm | - | 0 W/m² | - |
| 1777495213 | 11.67° C | 88% | 1009.7 hPa | 0 mm | - | 0 W/m² | - |
* Rain latest hour (hover to see other rain measurements)
** Current wind speed in m/s (hover to see current wind gust speed)